SCP
0 -0 0 0 -0 0 -0 0 -0 0 0 0 0 0 -0 -0 0 0 0 0 -0 -0 0 0 0 0 0 0 0 0 0 0 0 0 -0 -0 -0 -0 -0 -0 -0 -0 -0 -0 0 0 0 0 0
0 0 0 0 -0 0 -0 -0 0 0 -0 -0 0 0 0 -0 0 0 0 0 -0 -0 0 0 0 0 0 0 0 0 0 0 0 0 0 0 0 0 -0 0 -0 -0 -0 -0 0 0 0 0 0
0 0 0 0 -0 0 -0 0 -0 -0 -0 0 0 0 0 0 0 0 0 0 -0 -0 0 0 0 -0 0 0 0 0 0 0 0 0 0 0 0 0 0 0 0 0 0 0 0 0 0 0 0
0 0 0 -0 0 0 0 -0 -0 -0 0 -0 -0 0 0 0 0 0 -0 0 0 -0 0 0 -0 -0 -0 0 0 0 0 0 0 0 0 0 0 0 0 0 0 0 0 0 0 0 0 0 0
0 0 0 -0 0 0 0 -0 -0 -0 0 0 -0 0 0 0 0 -0 0 0 0 0 0 0 0 0 0 0 0 0 0 0 0 0 0 0 0 0 0 0 0 0 0 0 0 0 0 0 0
0 0 0 0 0 0 0 0 -0 -0 -0 -0 -0 0 0 0 0 -0 -0 0 0 0 0 -0 -0 -0 -0 -0 -0 -0 0 0 0 0 -0 0 0 0 0 0 0 0 0 0 0 0 0 0 0
0 0 0 0 0 0 0 0 -0 0 -0 0 0 0 0 0 0 0 -0 0 0 0 0 0 -0 -0 -0 0 -0 0 0 0 0 0 0 0 0 0 0 0 0 0 0 0 0 0 0 0 0
0 0 0 0 0 0 0 0 0 0 0 0 -0 0 0 0 -0 0 0 0 0 0 0 0 -0 -0 -0 -0 0 0 0 0 0 0 0 0 0 0 0 0 0 0 0 0 0 0 0 0 0
0 0 0 0 0 0 0 0 0 0 0 0 0 0 0 -0 -0 0 0 0 0 0 0 0 0 0 0 0 0 0 0 0 0 0 0 0 0 0 0 0 0 0 0 0 0 0 0 0 0
0 0 0 0 0 0 0 0 0 0 0 0 0 0 0 -0 0 0 0 0 0 0 0 0 0 0 0 0 0 0 0 0 0 0 0 0 0 0 0 0 0 0 0 0 0 0 0 0 0
0 0 0 0 0 0 0 0 0 0 0 0 0 0 -0 -0 0 0 0 0 0 0 0 0 0 0 0 0 0 0 0 0 0 0 0 0 0 0 0 0 0 0 0 0 0 0 0 0 0
0 0 0 0 0 0 0 0 0 0 0 0 0 0 0 -0 -0 0 0 0 0 0 0 0 0 0 0 0 0 0 0 0 0 0 0 0 0 0 0 0 0 0 0 0 0 0 0 0 0
0 0 0 0 0 0 0 0 0 0 0 0 0 0 0 0 0 0 0 0 0 0 0 0 0 0 0 0 0 0 0 0 0 0 0 0 0 0 0 0 0 0 0 0 0 0 0 0 0
0 0 0 0 0 0 0 0 0 0 0 0 0 0 0 0 0 0 0 0 0 0 0 0 0 0 0 0 0 0 0 0 0 0 0 0 0 0 0 0 0 0 0 0 0 0 0 0 0
0 0 0 0 0 0 0 0 0 0 0 0 0 0 0 0 0 0 0 0 0 0 0 0 0 0 0 0 0 0 0 0 0 0 0 0 0 0 0 0 0 0 0 0 0 0 0 0 0
0 0 0 0 0 0 0 0 0 0 0 0 0 0 0 0 0 0 0 0 0 0 0 0 0 0 0 0 0 0 0 0 0 0 0 0 0 0 0 0 0 0 0 0 0 0 0 0 0
0 0 0 0 0 0 0 0 0 0 0 0 0 0 0 0 0 0 0 0 0 0 0 0 0 0 0 0 0 0 0 0 0 0 0 0 0 0 0 0 0 0 0 0 0 0 0 0 0
0 0 0 0 0 0 0 0 0 0 0 0 0 0 0 0 0 0 0 0 0 0 0 0 0 0 0 0 0 0 0 0 0 0 0 0 0 0 0 0 0 0 0 0 0 0 0 0 0
0 0 0 0 0 0 0 0 0 0 0 0 0 0 0 0 0 0 0 0 0 0 0 0 0 0 0 0 0 0 0 0 0 0 0 0 0 0 0 0 0 0 0 0 0 0 0 0 0
0 0 0 0 0 0 0 0 0 0 0 0 0 0 0 0 0 0 0 0 0 0 0 0 0 0 0 0 0 0 0 0 0 0 0 0 0 0 0 0 0 0 0 0 0 0 0 0 0
0 0 0 0 0 0 0 0 0 0 0 0 0 0 0 0 0 0 0 0 0 0 0 0 0 0 0 0 0 0 0 0 0 0 0 0 0 0 0 0 0 0 0 0 0 0 0 0 0
0 0 0 0 0 0 0 0 0 0 0 0 0 0 0 0 0 0 0 0 0 0 0 0 0 0 0 0 0 0 0 0 0 0 0 0 0 0 0 0 0 0 0 0 0 0 0 0 0
0 0 0 0 0 0 0 0 0 0 0 0 0 0 0 0 0 0 0 0 0 0 0 0 0 0 0 0 0 0 0 0 0 0 0 0 0 0 0 0 0 0 0 0 0 0 0 0 0
0 0 0 0 0 0 0 0 0 0 0 0 0 0 0 0 0 0 0 0 0 0 0 0 0 0 0 0 0 0 0 0 0 0 0 0 0 0 0 0 0 0 0 0 0 0 0 0 0
0 0 0 0 0 0 0 0 0 0 0 0 0 0 0 0 0 0 0 0 0 0 0 0 0 0 0 0 0 0 0 0 0 0 0 0 0 0 0 0 0 0 0 0 0 0 0 0 0
0 0 0 0 0 0 0 0 0 0 0 0 0 0 0 0 0 0 0 0 0 0 0 0 0 0 0 0 0 0 0 0 0 0 0 0 0 0 0 0 0 0 0 0 0 0 0 0 0
0 0 0 0 0 0 0 0 0 0 0 0 0 0 0 0 0 0 0 0 0 0 0 0 0 0 0 0 0 0 0 0 0 0 0 0 0 0 0 0 0 0 0 0 0 0 0 0 0
0 0 0 0 0 0 0 0 0 0 0 0 0 0 0 0 0 0 0 0 0 0 0 0 0 0 0 0 0 0 0 0 0 0 0 0 0 0 0 0 0 0 0 0 0 0 0 0 0
0 0 0 0 0 0 0 0 0 0 0 0 0 0 0 0 0 0 0 0 0 0 0 0 0 0 0 0 0 0 0 0 0 0 0 0 0 0 0 0 0 0 0 0 0 0 0 0 0
0 0 0 0 0 0 0 0 0 0 0 0 0 0 0 0 0 0 0 0 0 0 0 0 0 0 0 0 0 0 0 0 0 0 0 0 0 0 0 0 0 0 0 0 0 0 0 0 0
Wind_Speed_500mb
1 14 11 8 11 10 10 10 13 14 13 8 11 7 16 19 16 9 27 18 27 25 21 19 16 15 16 18 16 14 13 11 8 7 7 6 6 8 10 11 12 15 12 8 9 7 7 11 13
7 14 10 11 11 15 13 17 15 14 18 18 11 6 5 19 16 27 22 26 28 25 21 18 20 17 17 16 15 13 13 14 12 8 6 7 13 16 19 11 6 12 9 8 7 6 7 8 10
8 17 15 9 14 3 13 16 22 22 22 16 9 6 5 11 20 21 23 31 27 24 18 17 22 19 19 18 17 15 16 17 13 5 5 12 14 14 8 3 8 10 11 10 12 9 9 6 7
5 11 12 15 15 13 12 20 31 29 14 8 6 13 14 16 19 14 28 30 26 23 18 17 19 18 18 18 17 16 15 12 8 6 6 8 7 7 8 7 9 11 11 11 13 5 9 8 9
9 12 14 20 10 10 7 28 34 23 21 18 10 13 13 11 18 28 29 28 25 22 17 16 14 14 14 15 13 13 12 10 8 7 6 8 2 4 6 6 7 9 11 7 3 4 7 11 14
14 12 12 18 16 13 17 25 28 16 19 18 9 22 14 16 21 30 29 28 25 23 17 12 12 12 11 10 9 9 8 7 6 5 5 6 3 5 3 5 5 5 6 6 6 5 7 11 13
14 12 17 15 21 16 20 24 25 18 18 15 13 15 15 20 25 28 30 29 27 23 19 13 8 9 9 7 6 4 3 3 2 2 2 4 4 8 9 8 8 8 7 7 8 9 11 13 15
5 8 6 10 19 13 24 29 22 16 16 15 11 8 21 28 31 29 29 27 26 23 20 17 13 8 4 3 2 1 2 2 2 3 4 6 8 10 11 12 11 11 12 11 11 12 14 17 19
2 10 14 13 15 18 27 24 17 8 13 11 14 6 18 36 35 30 28 25 24 22 21 19 15 11 11 6 1 3 3 4 5 7 7 8 8 14 14 15 17 16 16 15 15 17 17 20 20
6 9 8 10 10 11 28 23 25 16 18 15 16 10 27 38 37 33 29 26 24 22 20 18 16 13 11 6 3 3 8 5 6 6 11 7 10 11 15 19 18 17 16 17 18 19 19 20 14
1 5 7 7 8 3 20 16 18 19 22 22 25 24 36 37 36 34 29 24 23 20 19 18 16 13 10 8 5 4 5 4 5 5 5 3 5 8 11 9 13 12 18 12 18 21 22 21 23
8 4 5 7 5 4 12 12 14 23 8 6 10 29 37 39 38 36 32 27 25 23 20 18 16 14 12 10 9 9 10 10 9 12 11 11 9 12 15 21 14 19 14 17 19 22 24 25 25
7 8 6 8 5 3 2 9 16 22 27 8 14 26 36 37 35 32 30 30 30 27 23 20 18 14 12 14 13 13 15 17 15 16 16 15 15 16 20 20 26 23 24 20 23 24 26 27 27
6 9 8 5 6 2 3 8 3 13 21 23 16 26 33 37 38 34 33 32 30 27 25 24 20 17 16 17 17 16 15 15 19 21 21 24 22 25 28 28 31 30 24 25 25 30 31 32 32
12 10 7 11 8 2 2 16 19 18 7 23 27 25 32 36 37 41 37 32 30 27 30 26 22 18 17 18 18 17 17 18 15 23 27 28 31 33 34 34 34 33 30 33 34 33 32 29 25
10 5 12 14 13 6 7 21 2 12 12 21 25 30 31 36 41 39 34 33 39 30 34 32 27 25 22 22 22 22 23 21 25 25 29 31 36 36 38 39 40 35 34 34 33 27 25 29 23
10 13 21 13 13 8 20 13 8 3 10 21 25 27 29 33 37 37 37 37 39 37 37 35 32 29 26 26 27 26 25 26 29 32 34 36 37 37 40 41 43 40 39 36 34 35 32 33 31
15 15 5 17 12 15 21 28 9 4 10 21 26 27 30 34 36 34 36 45 42 40 38 36 34 30 27 28 27 27 27 30 33 36 38 37 36 33 31 31 30 28 28 31 30 32 31 32 29
12 18 20 6 6 6 22 28 26 26 27 31 30 32 32 35 31 38 38 42 42 39 38 36 33 31 29 26 21 22 21 31 35 35 32 26 21 18 15 15 17 19 23 28 30 31 30 25 37
15 17 18 6 1 5 17 29 31 34 43 44 43 42 39 35 37 42 40 41 38 39 37 35 32 29 27 24 24 23 27 28 29 25 17 11 6 6 11 15 18 23 24 28 29 30 32 34 40
17 21 14 8 2 12 17 28 37 22 33 38 37 38 42 43 41 32 35 38 37 35 34 33 31 28 23 22 24 25 24 20 14 6 2 3 7 11 15 18 21 25 30 33 32 32 28 19 20
22 17 7 7 4 9 4 10 9 12 12 17 22 27 36 38 35 35 35 31 35 36 35 32 28 23 20 20 21 18 12 11 8 6 6 8 12 16 20 23 25 26 24 23 21 20 18 15 15
4 16 14 7 8 8 17 10 12 3 17 18 12 3 12 12 24 33 35 35 38 37 36 31 24 19 18 20 20 18 14 9 8 8 10 13 17 19 21 22 23 22 20 19 18 17 17 14 13
24 25 16 6 3 10 21 15 13 14 7 12 10 1 5 10 17 23 30 42 38 36 33 27 20 18 20 19 16 14 11 9 8 9 12 15 18 20 20 20 20 20 20 19 19 18 16 13 12
15 24 6 5 7 11 6 12 19 5 6 5 10 9 3 5 12 25 31 33 34 34 29 25 23 21 19 16 13 10 8 8 8 10 13 16 19 21 22 22 22 22 21 20 19 18 17 16 15
27 11 6 12 10 6 8 14 8 8 5 3 6 2 6 11 15 19 23 26 32 32 30 28 26 22 18 15 13 11 8 6 7 10 14 17 20 23 24 24 23 22 21 20 19 18 18 17 15
16 13 7 8 4 4 12 13 22 10 5 5 6 8 11 14 18 22 25 27 30 31 31 30 27 25 21 16 12 8 6 8 13 16 20 22 24 25 25 25 24 23 22 21 20 19 18 17 15
10 23 7 5 9 10 11 12 14 8 9 9 11 16 17 18 20 23 26 29 31 33 33 33 31 25 20 15 11 10 13 16 18 20 22 24 26 28 28 27 25 23 21 20 19 17 16 15 14
11 11 11 9 4 6 5 7 6 10 8 9 15 20 22 21 22 25 27 30 31 32 35 36 31 25 18 16 15 17 20 21 21 21 23 26 27 28 28 27 25 23 22 21 20 19 17 16 14
26 18 21 8 11 8 5 9 10 10 8 10 16 23 22 22 27 28 26 29 33 36 37 32 29 26 25 23 21 23 23 23 24 25 27 28 29 30 28 27 26 24 23 23 21 20 18 15 12
Wind_Direction_500mb
133 162 174 243 231 246 126 130 107 125 140 86 85 347 39 27 4 49 137 132 141 142 160 141 127 106 104 128 141 142 146 147 142 124 100 62 46 77 87 61 62 60 59 91 72 60 55 43 44
152 162 207 250 252 212 122 127 155 133 96 127 109 122 92 77 67 119 132 133 138 141 139 150 129 115 106 111 125 132 135 126 127 111 72 67 86 83 90 95 50 18 31 70 92 61 53 41 42
167 176 232 221 250 272 131 161 118 113 131 138 120 19 53 88 113 121 140 140 140 140 157 159 132 123 117 109 112 120 132 129 158 126 98 96 89 101 107 44 8 25 52 78 56 54 31 32 21
201 201 245 245 194 72 109 146 133 135 137 148 128 108 95 89 130 143 141 142 142 143 158 156 137 133 122 115 113 119 128 141 148 137 130 100 57 54 52 46 48 51 58 89 95 89 15 11 352
217 231 227 230 133 112 125 132 150 158 146 149 168 132 105 123 129 138 141 143 150 151 175 160 149 142 127 121 118 114 118 133 143 142 131 132 132 339 2 26 35 39 45 66 102 247 285 317 325
218 259 226 199 162 133 140 145 158 146 136 127 170 135 116 145 141 147 147 149 155 157 159 174 166 156 148 132 123 118 112 110 130 155 169 163 159 207 329 343 346 353 10 20 16 358 324 324 330
261 231 250 212 150 159 151 161 167 149 148 152 131 138 129 151 155 151 149 152 153 160 158 172 172 172 167 166 151 137 123 112 99 158 241 195 253 285 308 311 312 314 319 312 320 320 320 323 326
264 257 241 223 167 160 151 159 170 164 122 128 159 162 167 166 158 154 156 158 159 164 162 163 182 189 192 182 194 234 251 262 284 298 291 289 286 290 297 301 296 301 308 308 303 304 309 312 316
296 231 212 189 197 133 158 158 168 156 138 166 167 56 123 160 158 160 162 164 166 169 167 167 168 166 178 198 333 343 327 286 289 291 293 299 322 299 307 297 301 300 296 295 298 305 310 313 322
266 250 204 42 48 160 175 179 165 172 171 185 170 131 150 159 167 172 177 180 179 179 178 176 171 168 171 179 249 6 322 345 346 316 299 318 266 273 290 295 299 302 306 302 304 306 309 321 321
172 246 107 110 88 73 167 200 173 203 193 198 193 167 165 171 177 182 185 188 188 188 185 181 181 186 186 205 199 258 248 236 257 278 290 326 318 316 322 286 308 325 315 336 308 312 318 322 325
202 89 64 107 64 94 169 202 209 222 178 232 178 179 176 182 188 188 187 188 185 187 190 190 191 199 211 213 251 243 255 258 264 274 282 278 300 300 331 329 324 311 299 307 293 296 309 315 317
210 151 108 102 81 73 19 215 236 229 233 228 186 179 188 192 194 196 195 188 184 186 188 192 198 209 227 246 240 245 245 264 259 256 265 280 284 288 298 304 307 310 330 317 314 312 308 305 302
123 159 146 151 134 69 264 219 260 227 225 219 206 204 205 203 200 196 197 194 195 186 192 209 220 229 234 244 243 238 244 250 258 261 268 277 280 283 279 282 282 285 283 296 300 297 296 296 293
141 153 181 195 187 153 273 247 227 241 208 230 224 219 217 215 208 203 201 200 197 202 214 220 228 232 248 255 257 251 253 255 255 253 264 255 261 266 272 277 278 278 279 288 290 292 294 299 308
186 231 210 133 187 153 199 250 259 192 230 235 232 228 218 212 210 206 204 200 206 207 218 228 227 230 238 246 250 254 258 260 268 277 276 274 264 266 269 272 275 282 289 292 292 295 293 299 312
200 238 215 159 211 154 206 256 84 295 242 244 238 233 221 214 207 203 205 203 207 212 221 226 229 236 240 246 255 262 267 270 274 276 276 276 274 271 270 273 276 280 284 287 289 297 297 294 293
210 227 202 236 149 216 210 248 202 186 251 247 245 237 226 219 213 208 211 212 217 219 222 228 233 237 243 250 260 268 272 272 273 276 278 279 277 276 277 278 281 283 275 280 291 299 299 299 300
287 214 238 129 71 268 241 256 258 255 238 245 242 239 230 226 218 209 219 218 221 224 226 229 232 236 242 248 262 272 268 276 277 280 280 277 276 280 287 294 294 293 290 292 296 295 299 307 296
207 210 225 71 119 265 283 273 271 251 241 238 238 237 232 226 215 228 227 222 221 225 228 229 230 233 239 251 261 258 263 271 281 283 281 277 278 299 306 300 299 300 298 297 296 298 296 294 295
207 216 205 282 169 231 291 274 255 235 249 241 237 242 240 232 224 221 224 222 222 224 226 226 226 230 244 255 256 254 258 265 271 270 307 308 303 305 305 298 296 298 296 290 291 295 296 291 296
206 210 232 204 258 265 346 284 190 192 210 201 218 231 236 236 233 222 214 215 216 217 216 216 220 230 242 246 243 238 233 240 244 251 274 292 297 300 300 303 304 306 308 306 304 299 297 289 280
164 148 177 182 235 328 212 253 239 106 242 210 170 192 214 223 223 222 208 215 215 215 214 214 219 227 236 234 229 219 224 235 244 263 280 294 301 307 311 312 312 310 310 309 305 302 298 295 288
134 121 105 121 230 246 226 220 253 207 240 149 173 55 229 230 219 192 195 213 208 205 207 209 209 216 221 221 214 214 219 235 259 280 291 296 303 308 312 314 316 316 313 310 307 304 300 294 285
168 158 110 204 213 239 105 220 268 149 174 260 301 294 250 195 171 176 201 196 197 196 197 195 199 201 199 192 190 194 203 222 251 273 292 305 313 318 321 321 321 320 318 314 310 305 303 301 300
185 190 184 207 202 175 141 229 238 94 116 314 319 245 169 158 165 173 174 184 187 187 188 191 190 184 176 169 173 183 201 234 279 302 308 311 313 316 317 318 317 316 315 314 311 310 309 308 311
173 199 46 94 36 268 199 233 274 180 166 180 180 180 174 166 164 168 174 181 186 188 189 186 176 168 166 170 183 203 248 291 302 307 311 314 314 314 313 313 314 313 313 313 312 311 310 308 308
207 144 140 215 202 234 199 250 245 193 174 161 177 188 174 168 165 169 177 184 188 189 184 176 170 170 180 194 217 259 286 292 297 305 310 313 317 319 318 316 313 313 313 310 308 306 303 299 299
161 183 214 181 271 254 268 223 93 157 165 176 188 187 179 176 176 178 181 188 190 184 179 177 183 195 208 230 256 276 282 283 289 301 311 315 317 317 313 310 308 307 304 299 295 289 285 284 288
225 226 194 215 189 241 330 258 156 151 174 198 189 184 182 182 185 184 187 191 189 184 185 191 204 220 232 245 261 268 277 285 291 300 303 304 310 308 305 304 301 297 293 289 285 279 274 271 270
Wind_Speed_850mb
1 14 11 8 11 10 10 10 13 14 13 8 11 7 16 19 16 9 27 18 27 25 21 19 16 15 16 18 16 14 13 11 8 7 7 6 6 8 10 11 12 15 12 8 9 7 7 11 13
7 14 10 11 11 15 13 17 15 14 18 18 11 6 5 19 16 27 22 26 28 25 21 18 20 17 17 16 15 13 13 14 12 8 6 7 13 16 19 11 6 12 9 8 7 6 7 8 10
8 17 15 9 14 3 13 16 22 22 22 16 9 6 5 11 20 21 23 31 27 24 18 17 22 19 19 18 17 15 16 17 13 5 5 12 14 14 8 3 8 10 11 10 12 9 9 6 7
5 11 12 15 15 13 12 20 31 29 14 8 6 13 14 16 19 14 28 30 26 23 18 17 19 18 18 18 17 16 15 12 8 6 6 8 7 7 8 7 9 11 11 11 13 5 9 8 9
9 12 14 20 10 10 7 28 34 23 21 18 10 13 13 11 18 28 29 28 25 22 17 16 14 14 14 15 13 13 12 10 8 7 6 8 2 4 6 6 7 9 11 7 3 4 7 11 14
14 12 12 18 16 13 17 25 28 16 19 18 9 22 14 16 21 30 29 28 25 23 17 12 12 12 11 10 9 9 8 7 6 5 5 6 3 5 3 5 5 5 6 6 6 5 7 11 13
14 12 17 15 21 16 20 24 25 18 18 15 13 15 15 20 25 28 30 29 27 23 19 13 8 9 9 7 6 4 3 3 2 2 2 4 4 8 9 8 8 8 7 7 8 9 11 13 15
5 8 6 10 19 13 24 29 22 16 16 15 11 8 21 28 31 29 29 27 26 23 20 17 13 8 4 3 2 1 2 2 2 3 4 6 8 10 11 12 11 11 12 11 11 12 14 17 19
2 10 14 13 15 18 27 24 17 8 13 11 14 6 18 36 35 30 28 25 24 22 21 19 15 11 11 6 1 3 3 4 5 7 7 8 8 14 14 15 17 16 16 15 15 17 17 20 20
6 9 8 10 10 11 28 23 25 16 18 15 16 10 27 38 37 33 29 26 24 22 20 18 16 13 11 6 3 3 8 5 6 6 11 7 10 11 15 19 18 17 16 17 18 19 19 20 14
1 5 7 7 8 3 20 16 18 19 22 22 25 24 36 37 36 34 29 24 23 20 19 18 16 13 10 8 5 4 5 4 5 5 5 3 5 8 11 9 13 12 18 12 18 21 22 21 23
8 4 5 7 5 4 12 12 14 23 8 6 10 29 37 39 38 36 32 27 25 23 20 18 16 14 12 10 9 9 10 10 9 12 11 11 9 12 15 21 14 19 14 17 19 22 24 25 25
7 8 6 8 5 3 2 9 16 22 27 8 14 26 36 37 35 32 30 30 30 27 23 20 18 14 12 14 13 13 15 17 15 16 16 15 15 16 20 20 26 23 24 20 23 24 26 27 27
6 9 8 5 6 2 3 8 3 13 21 23 16 26 33 37 38 34 33 32 30 27 25 24 20 17 16 17 17 16 15 15 19 21 21 24 22 25 28 28 31 30 24 25 25 30 31 32 32
12 10 7 11 8 2 2 16 19 18 7 23 27 25 32 36 37 41 37 32 30 27 30 26 22 18 17 18 18 17 17 18 15 23 27 28 31 33 34 34 34 33 30 33 34 33 32 29 25
10 5 12 14 13 6 7 21 2 12 12 21 25 30 31 36 41 39 34 33 39 30 34 32 27 25 22 22 22 22 23 21 25 25 29 31 36 36 38 39 40 35 34 34 33 27 25 29 23
10 13 21 13 13 8 20 13 8 3 10 21 25 27 29 33 37 37 37 37 39 37 37 35 32 29 26 26 27 26 25 26 29 32 34 36 37 37 40 41 43 40 39 36 34 35 32 33 31
15 15 5 17 12 15 21 28 9 4 10 21 26 27 30 34 36 34 36 45 42 40 38 36 34 30 27 28 27 27 27 30 33 36 38 37 36 33 31 31 30 28 28 31 30 32 31 32 29
12 18 20 6 6 6 22 28 26 26 27 31 30 32 32 35 31 38 38 42 42 39 38 36 33 31 29 26 21 22 21 31 35 35 32 26 21 18 15 15 17 19 23 28 30 31 30 25 37
15 17 18 6 1 5 17 29 31 34 43 44 43 42 39 35 37 42 40 41 38 39 37 35 32 29 27 24 24 23 27 28 29 25 17 11 6 6 11 15 18 23 24 28 29 30 32 34 40
17 21 14 8 2 12 17 28 37 22 33 38 37 38 42 43 41 32 35 38 37 35 34 33 31 28 23 22 24 25 24 20 14 6 2 3 7 11 15 18 21 25 30 33 32 32 28 19 20
22 17 7 7 4 9 4 10 9 12 12 17 22 27 36 38 35 35 35 31 35 36 35 32 28 23 20 20 21 18 12 11 8 6 6 8 12 16 20 23 25 26 24 23 21 20 18 15 15
4 16 14 7 8 8 17 10 12 3 17 18 12 3 12 12 24 33 35 35 38 37 36 31 24 19 18 20 20 18 14 9 8 8 10 13 17 19 21 22 23 22 20 19 18 17 17 14 13
24 25 16 6 3 10 21 15 13 14 7 12 10 1 5 10 17 23 30 42 38 36 33 27 20 18 20 19 16 14 11 9 8 9 12 15 18 20 20 20 20 20 20 19 19 18 16 13 12
15 24 6 5 7 11 6 12 19 5 6 5 10 9 3 5 12 25 31 33 34 34 29 25 23 21 19 16 13 10 8 8 8 10 13 16 19 21 22 22 22 22 21 20 19 18 17 16 15
27 11 6 12 10 6 8 14 8 8 5 3 6 2 6 11 15 19 23 26 32 32 30 28 26 22 18 15 13 11 8 6 7 10 14 17 20 23 24 24 23 22 21 20 19 18 18 17 15
16 13 7 8 4 4 12 13 22 10 5 5 6 8 11 14 18 22 25 27 30 31 31 30 27 25 21 16 12 8 6 8 13 16 20 22 24 25 25 25 24 23 22 21 20 19 18 17 15
10 23 7 5 9 10 11 12 14 8 9 9 11 16 17 18 20 23 26 29 31 33 33 33 31 25 20 15 11 10 13 16 18 20 22 24 26 28 28 27 25 23 21 20 19 17 16 15 14
11 11 11 9 4 6 5 7 6 10 8 9 15 20 22 21 22 25 27 30 31 32 35 36 31 25 18 16 15 17 20 21 21 21 23 26 27 28 28 27 25 23 22 21 20 19 17 16 14
26 18 21 8 11 8 5 9 10 10 8 10 16 23 22 22 27 28 26 29 33 36 37 32 29 26 25 23 21 23 23 23 24 25 27 28 29 30 28 27 26 24 23 23 21 20 18 15 12
Wind_Direction_850mb
133 162 174 243 231 246 126 130 107 125 140 86 85 347 39 27 4 49 137 132 141 142 160 141 127 106 104 128 141 142 146 147 142 124 100 62 46 77 87 61 62 60 59 91 72 60 55 43 44
152 162 207 250 252 212 122 127 155 133 96 127 109 122 92 77 67 119 132 133 138 141 139 150 129 115 106 111 125 132 135 126 127 111 72 67 86 83 90 95 50 18 31 70 92 61 53 41 42
167 176 232 221 250 272 131 161 118 113 131 138 120 19 53 88 113 121 140 140 140 140 157 159 132 123 117 109 112 120 132 129 158 126 98 96 89 101 107 44 8 25 52 78 56 54 31 32 21
201 201 245 245 194 72 109 146 133 135 137 148 128 108 95 89 130 143 141 142 142 143 158 156 137 133 122 115 113 119 128 141 148 137 130 100 57 54 52 46 48 51 58 89 95 89 15 11 352
217 231 227 230 133 112 125 132 150 158 146 149 168 132 105 123 129 138 141 143 150 151 175 160 149 142 127 121 118 114 118 133 143 142 131 132 132 339 2 26 35 39 45 66 102 247 285 317 325
218 259 226 199 162 133 140 145 158 146 136 127 170 135 116 145 141 147 147 149 155 157 159 174 166 156 148 132 123 118 112 110 130 155 169 163 159 207 329 343 346 353 10 20 16 358 324 324 330
261 231 250 212 150 159 151 161 167 149 148 152 131 138 129 151 155 151 149 152 153 160 158 172 172 172 167 166 151 137 123 112 99 158 241 195 253 285 308 311 312 314 319 312 320 320 320 323 326
264 257 241 223 167 160 151 159 170 164 122 128 159 162 167 166 158 154 156 158 159 164 162 163 182 189 192 182 194 234 251 262 284 298 291 289 286 290 297 301 296 301 308 308 303 304 309 312 316
296 231 212 189 197 133 158 158 168 156 138 166 167 56 123 160 158 160 162 164 166 169 167 167 168 166 178 198 333 343 327 286 289 291 293 299 322 299 307 297 301 300 296 295 298 305 310 313 322
266 250 204 42 48 160 175 179 165 172 171 185 170 131 150 159 167 172 177 180 179 179 178 176 171 168 171 179 249 6 322 345 346 316 299 318 266 273 290 295 299 302 306 302 304 306 309 321 321
172 246 107 110 88 73 167 200 173 203 193 198 193 167 165 171 177 182 185 188 188 188 185 181 181 186 186 205 199 258 248 236 257 278 290 326 318 316 322 286 308 325 315 336 308 312 318 322 325
202 89 64 107 64 94 169 202 209 222 178 232 178 179 176 182 188 188 187 188 185 187 190 190 191 199 211 213 251 243 255 258 264 274 282 278 300 300 331 329 324 311 299 307 293 296 309 315 317
210 151 108 102 81 73 19 215 236 229 233 228 186 179 188 192 194 196 195 188 184 186 188 192 198 209 227 246 240 245 245 264 259 256 265 280 284 288 298 304 307 310 330 317 314 312 308 305 302
123 159 146 151 134 69 264 219 260 227 225 219 206 204 205 203 200 196 197 194 195 186 192 209 220 229 234 244 243 238 244 250 258 261 268 277 280 283 279 282 282 285 283 296 300 297 296 296 293
141 153 181 195 187 153 273 247 227 241 208 230 224 219 217 215 208 203 201 200 197 202 214 220 228 232 248 255 257 251 253 255 255 253 264 255 261 266 272 277 278 278 279 288 290 292 294 299 308
186 231 210 133 187 153 199 250 259 192 230 235 232 228 218 212 210 206 204 200 206 207 218 228 227 230 238 246 250 254 258 260 268 277 276 274 264 266 269 272 275 282 289 292 292 295 293 299 312
200 238 215 159 211 154 206 256 84 295 242 244 238 233 221 214 207 203 205 203 207 212 221 226 229 236 240 246 255 262 267 270 274 276 276 276 274 271 270 273 276 280 284 287 289 297 297 294 293
210 227 202 236 149 216 210 248 202 186 251 247 245 237 226 219 213 208 211 212 217 219 222 228 233 237 243 250 260 268 272 272 273 276 278 279 277 276 277 278 281 283 275 280 291 299 299 299 300
287 214 238 129 71 268 241 256 258 255 238 245 242 239 230 226 218 209 219 218 221 224 226 229 232 236 242 248 262 272 268 276 277 280 280 277 276 280 287 294 294 293 290 292 296 295 299 307 296
207 210 225 71 119 265 283 273 271 251 241 238 238 237 232 226 215 228 227 222 221 225 228 229 230 233 239 251 261 258 263 271 281 283 281 277 278 299 306 300 299 300 298 297 296 298 296 294 295
207 216 205 282 169 231 291 274 255 235 249 241 237 242 240 232 224 221 224 222 222 224 226 226 226 230 244 255 256 254 258 265 271 270 307 308 303 305 305 298 296 298 296 290 291 295 296 291 296
206 210 232 204 258 265 346 284 190 192 210 201 218 231 236 236 233 222 214 215 216 217 216 216 220 230 242 246 243 238 233 240 244 251 274 292 297 300 300 303 304 306 308 306 304 299 297 289 280
164 148 177 182 235 328 212 253 239 106 242 210 170 192 214 223 223 222 208 215 215 215 214 214 219 227 236 234 229 219 224 235 244 263 280 294 301 307 311 312 312 310 310 309 305 302 298 295 288
134 121 105 121 230 246 226 220 253 207 240 149 173 55 229 230 219 192 195 213 208 205 207 209 209 216 221 221 214 214 219 235 259 280 291 296 303 308 312 314 316 316 313 310 307 304 300 294 285
168 158 110 204 213 239 105 220 268 149 174 260 301 294 250 195 171 176 201 196 197 196 197 195 199 201 199 192 190 194 203 222 251 273 292 305 313 318 321 321 321 320 318 314 310 305 303 301 300
185 190 184 207 202 175 141 229 238 94 116 314 319 245 169 158 165 173 174 184 187 187 188 191 190 184 176 169 173 183 201 234 279 302 308 311 313 316 317 318 317 316 315 314 311 310 309 308 311
173 199 46 94 36 268 199 233 274 180 166 180 180 180 174 166 164 168 174 181 186 188 189 186 176 168 166 170 183 203 248 291 302 307 311 314 314 314 313 313 314 313 313 313 312 311 310 308 308
207 144 140 215 202 234 199 250 245 193 174 161 177 188 174 168 165 169 177 184 188 189 184 176 170 170 180 194 217 259 286 292 297 305 310 313 317 319 318 316 313 313 313 310 308 306 303 299 299
161 183 214 181 271 254 268 223 93 157 165 176 188 187 179 176 176 178 181 188 190 184 179 177 183 195 208 230 256 276 282 283 289 301 311 315 317 317 313 310 308 307 304 299 295 289 285 284 288
225 226 194 215 189 241 330 258 156 151 174 198 189 184 182 182 185 184 187 191 189 184 185 191 204 220 232 245 261 268 277 285 291 300 303 304 310 308 305 304 301 297 293 289 285 279 274 271 270